Location: Unspecified
(54.1780°N, 0.0000°E)
Time: 23:13:09
(UTC+00:00)

Transit 2A - Pass Details

Date: 20 June 2019
Orbit: 594 x 964 km, 66.7° (Epoch: 19 July)

Event Time Altitude Azimuth Distance (km) Brightness Sun altitude
Rises 01:33:17 0° 217° (SW) 3,635 - -9.9°
Reaches altitude 10° 01:35:50 10° 217° (SW) 2,698 - -9.8°
Exits shadow 01:36:04 11° 217° (SW) 2,618 8.1 -9.8°
Maximum altitude 01:42:14 86° 129° (SE) 964 6.5 -9.4°
Drops below altitude 10° 01:48:27 10° 42° (NE) 2,621 10.1 -9.0°
Sets 01:50:54 0° 42° (NE) 3,525 11.1 -8.9°
